一网星座-0701 (ONEWEB-0701)

导读

ONEWEB-0701是英国太空互联网公司OneWeb的低轨通信卫星,于北京时间2024年10月20日由SpaceX猎鹰9号火箭在美国范登堡太空军基地发射升空,是SpaceX为OneWeb发射的最后一批20颗卫星之一。该卫星运行在近地点约1123千米、远地点约1127千米的近极地轨道,倾角87.748度,助力OneWeb完成全球覆盖组网,提升星座弹性与冗余性,更好服务全球企业及政府客户。

基本信息
目录编号:
61607
目录名称:
ONEWEB-0701
国际标识:
2024-188P
轨道中心:
EARTH
卫星名称:
一网星座-0701
卫星全名:
一网星座-0701 (ONEWEB-0701)
卫星状态:
在轨 (已飞行602 天)
发射日期:
2024-10-20 UTC
国别 :
英国 (GB)
星等 :
--
轨道信息
数据来源 国际轨道数据 AOE轨道数据
星历时间 2026-06-14T12:18:27+0800
9小时前
查看轨道信息
2026-06-12T01:00:00+0800
2天前
查看轨道信息
半长轴 7599.863km 7599.871km
偏心率 0.0001532 0.0001399
轨道倾角 87.884° 87.884°
近地点辐角 110.658° 107.296°
升交点赤经 36.864° 37.357°
平近点角 249.471° 122.250°
近地点 1220.561km 1220.67km
远地点 1222.891km 1222.798km
周期 109.893分钟 109.893分钟
每日圈数 13.103707 13.103685
详细信息
卫星平台:
0701
平衡模式:
三轴稳定
覆盖范围:
全球
运营商:
一网卫星公司
运营商所在国:
英国
制造商(研发单位):
空客防务与航天公司
制造商所在国:
法国大都会
使用方式:
暂无
卫星简介
OneWeb 计划是一项全球卫星互联网项目,旨在通过发射低轨道卫星,为全球偏远和无法接入互联网的地区提供高速网络连接。OneWeb 的目标是打造一个由数百颗卫星组成的网络,帮助缩小全球数字鸿沟,推动教育、医疗和经济发展。
2D轨道图
3D轨道图
轨道高度分析图
轨道倾角分析图
轨道综合分析图
查看轨道综合分析图